Tracking 23610 objects as of 19-Sep-2021
HD Live streaming from Space Station
objects crossing your sky now

STARLINK-2540

Track STARLINK-2540 now!
10-day predictions
STARLINK-2540 is classified as:


NORAD ID: 48290
Int'l Code: 2021-036Q
Perigee: 553.1 km
Apogee: 555.5 km
Inclination: 53.1 °
Period: 95.6 minutes
Semi major axis: 6925 km
RCS: Unknown
Launch date: April 29, 2021
Source: United States (US)
Launch site: AIR FORCE EASTERN TEST RANGE (AFETR)
aabbcc
Your satellite tracking list
Your tracking list is empty




NASA's NSSDC Master Catalog

Two Line Element Set (TLE):
1 48290U 21036Q   21262.00001157 -.00029861  00000-0 -19931-2 0  9995
2 48290  53.0529 211.0573 0001757  71.2410  68.0082 15.06419460  3578
Source of the keplerian elements: AFSPC